Regional Weather Roundup
Issued by NWS Charleston, SC

Current Version | Previous Version | Graphics & Text | Print | Product List | Glossary On
Versions: 1 2 3 4 5 6 7 8 9 10 11 12 13 14 15 16 17 18 19 20 21 22 23 24 25 26 27 28 29 30 31 32 33 34 35 36 37 38 39 40 41 42 43 44 45 46 47 48 49 50
584
ASUS42 KCHS 221410
RWRCHS

REGIONAL WEATHER ROUNDUP
NATIONAL WEATHER SERVICE CHARLESTON SC
900 AM EST WED FEB 22 2017

NOTE: "FAIR" INDICATES FEW OR NO CLOUDS BELOW 12,000 FEET WITH NO
SIGNIFICANT WEATHER AND/OR OBSTRUCTIONS TO VISIBILITY.

NOT ALL STATIONS ARE QUALITY CONTROLLED. USE DATA WITH CAUTION...
ESPECIALLY DEWPOINT OBSERVATIONS.

SCZ027-030-031-034>040-042>050-221500-
...SOUTHEAST SOUTH CAROLINA...

CITY           SKY/WX    TMP DP  RH WIND       PRES   REMARKS
N CHARLESTON   PTSUNNY   67  58  72 SE10      29.95S
WATERFRONT PRK   N/A     66  61  84 E10       29.94S
MOUNT PLEASANT FAIR      68  61  77 E8        29.96S
JOHNS ISLAND   PTSUNNY   68  61  77 E9        29.95S
PINOPOLIS        N/A     64  59  82 SE6       29.87S
MONCKS CORNER  FAIR      66  57  72 SE9       29.95F
SUMMERVILLE    PTSUNNY   66  57  72 E8        29.96S
BEAUFORT MCAS  CLOUDY    65  62  90 E7        29.92F
BEAUFORT ARPT    N/A    N/A N/A N/A MISG        N/A
HILTON HEAD IS LGT RAIN  63  61  94 NE9       29.92R
WALTERBORO     CLOUDY    63  59  88 E9        29.95F
ALLENDALE      FAIR      64  59  82 E6        29.92F

...SOUTHERN MIDLANDS AND PEE DEE...

CITY           SKY/WX    TMP DP  RH WIND       PRES   REMARKS
GEORGETOWN     FAIR      64  57  77 SE10      29.99S
KINGSTREE      FAIR      63  55  77 NE6       29.96F
ORANGEBURG     CLOUDY    60  56  86 E5        29.95F
BARNWELL       PTSUNNY   63  59  88 NE5       29.94F
AIKEN          PTSUNNY   59  55  88 E3        29.98F
MANNING        PTSUNNY   64  48  55 MISG      29.96S
COLUMBIA       PTSUNNY   64  55  72 E8        29.96F
SUMTER         FAIR      63  55  76 E5        29.95F
FLORENCE       FAIR      58  55  90 NE5       30.00R
MYRTLE BEACH   SUNNY     66  55  68 SE12      30.00F
N MYRTLE BEACH FAIR      64  56  75 E9        29.99F

$$

GAZ063-065-086>088-099>101-113>116-118-119-134>141-150-221500-
...SOUTHEAST GEORGIA...

CITY           SKY/WX    TMP DP  RH WIND       PRES   REMARKS
SAVANNAH ARPT  PTSUNNY   66  59  78 E9        29.91S
HUNTER AAF     FAIR      65  65  99 E5        29.88S
FORT STEWART   PTSUNNY   65  61  88 NE6       29.86F
STATESBORO     PTSUNNY   64  62  92 E6        29.91S
SYLVANIA       FAIR     N/A N/A N/A SE8       29.92S
CLAXTON        FAIR     N/A N/A N/A NE7       29.90S

...CSRA...CENTRAL AND FAR SOUTHEAST GEORGIA...

CITY           SKY/WX    TMP DP  RH WIND       PRES   REMARKS
THOMSON        FAIR      63  62  96 E6        29.97F
AUGUSTA-BUSH   FAIR      62  59  90 E3        29.93F
AUGUSTA-DANIEL FAIR      62  56  80 E7        29.94S
SWAINSBORO     CLOUDY    63  61  94 E9        29.90F
VIDALIA        PTSUNNY   64  64 100 E10       29.87F
EASTMAN        FAIR      65  63  91 E6        29.89S
HAZLEHURST     PTSUNNY   65  63  93 E8        29.86S
ALMA           FAIR      66  60  81 E7        29.85F
WAYCROSS       FAIR      68  67  95 E9        29.84F
JESUP          CLOUDY    64  61  88 E5        29.88S
BAXLEY         PTSUNNY   64  64 100 E8        29.86S
BRUNSWICK      LGT RAIN  66  64  94 E14       29.88S
SAINT SIMONS   CLOUDY    64  62  93 MISG      29.87S

$$

SCZ027-028-034-036>038-045-046-048>050-GAZ119-141-221500-
...LAKE AND SUPPLEMENTAL COASTAL OBSERVATIONS...

STATION/POSITION TIME  TEMP    WIND        PRES    WAVE   SWELL
                       AIR SEA DIR/SP/G            HT/PER HT/PER/DIR
                 (UTC) (F)     (DEG/KT/KT) (MB)    (FT/S) (FT/S/D)
WINYAH BAY       NOT AVBL
LAKE MURRAY      1320   58      40/  3/  5 1014.2
ACE BASIN NERRS  NOT AVBL
FORT PULASKI     1348   64 61   70/ 11/ 13 1013.0R
SAPELO ISLAND    1300   65      70/  6     1011.0

$$

ANZ835-935-AMZ111-154-330-350-352-354-370-450-454-472-221500-
...C-MAN AND BUOY OBSERVATIONS...

STATION/POSITION TIME  TEMP    WIND        PRES    WAVE   SWELL
                       AIR SEA DIR/SP/G            HT/PER HT/PER/DIR
                 (UTC) (F)     (DEG/KT/KT) (MB)    (FT/S) (FT/S/D)
BUOY 41004       1250   68 69   90/ 19/ 23 1013.7    5/ 5
BUOY 41008       1250   66 62   90/  8/ 10 1011.3    4/ 7   5/110/ 7
FOLLY BEACH CMAN 1300   62      80/ 10/ 11 1014.6R
CAPERS NEARSHORE 1308   63 59   90/ 10/ 12 1014.1F
FRIPP NEARSHORE  1308   63 60   60/  8/ 12 1012.9F


STATION/POSITION TIME  TEMP    WIND        PRES    WAVE   SWELL
                       AIR SEA DIR/SP/G            HT/PER HT/PER/DIR
                 (UTC) (F)     (DEG/KT/KT) (MB)    (FT/S) (FT/S/D)
5E ST. MARYS GA  1400      64                N/A     4/ 6
FRYING PAN BUOY  1350   69 67  130/ 12/ 14 1016.1F   4/ 5   2/ 90/ 8
BUOY 41025       1350   66 74  150/  8/ 12 1018.2S   3/ 9   3/ 90/ 9
CAPE LOOKOUT NC  1300   62      50/  4/  5 1017.1R
BUOY 41002       1350   65 71   80/ 12/ 14 1017.6R   5/ 9   5/ 30/ 9
BUOY 41010       NOT AVBL
ST AUGUSTINE FL  1400   69 67  150/ 11/ 12 1011.0R


$$




USA.gov is the U.S. government's official web portal to all federal, state and local government web resources and services.